| time (UTC) | temp C | wind direction | speed KPH | gust KPH | rain 1hr cm | rain 24hr cm | rain mn cm | humidity % | barometer mb |
| 20260510153005 | 12 | 32 | 3.2 | 14.5 | 0.00 | 0.48 | 0.48 | 81 | 1013.5 |
| 20260510152005 | 12 | 39 | 3.2 | 12.9 | 0.00 | 0.48 | 0.48 | 82 | 1013.6 |
| 20260510151005 | 11 | 27 | 3.2 | 12.9 | 0.00 | 0.48 | 0.48 | 83 | 1013.7 |
| 20260510150005 | 11 | 6 | 1.6 | 11.3 | 0.00 | 0.48 | 0.48 | 84 | 1013.8 |
| 20260510145005 | 11 | 89 | 1.6 | 12.9 | 0.00 | 0.48 | 0.48 | 85 | 1013.8 |
| 20260510144005 | 11 | 346 | 3.2 | 12.9 | 0.00 | 0.48 | 0.48 | 82 | 1013.9 |
| 20260510143005 | 11 | 10 | 3.2 | 12.9 | 0.00 | 0.48 | 0.48 | 84 | 1013.9 |
| 20260510142005 | 12 | 60 | 3.2 | 11.3 | 0.00 | 0.48 | 0.48 | 85 | 1014.0 |
| 20260510140004 | 11 | 347 | 3.2 | 14.5 | 0.00 | 0.48 | 0.48 | 86 | 1014.1 |
| 20260510134005 | 11 | 356 | 1.6 | 16.1 | 0.00 | 0.48 | 0.48 | 89 | 1014.1 |
| 20260510133006 | 11 | 102 | 1.6 | 8.0 | 0.00 | 0.48 | 0.48 | 91 | 1014.2 |
| 20260510132005 | 11 | 5 | 1.6 | 8.0 | 0.00 | 0.48 | 0.48 | 91 | 1014.3 |
| 20260510130005 | 10 | 18 | 3.2 | 4.8 | 0.03 | 0.48 | 0.48 | 91 | 1014.3 |
| 20260510125005 | 10 | 28 | 3.2 | 4.8 | 0.03 | 0.48 | 0.48 | 92 | 1014.3 |
| 20260510124005 | 10 | 25 | 3.2 | 8.0 | 0.05 | 0.48 | 0.48 | 92 | 1014.4 |
| 20260510123005 | 10 | 30 | 1.6 | 4.8 | 0.08 | 0.48 | 0.48 | 92 | 1014.4 |
| 20260510122005 | 10 | 26 | 3.2 | 8.0 | 0.13 | 0.48 | 0.48 | 92 | 1014.4 |
| 20260510121005 | 10 | 15 | 4.8 | 11.3 | 0.23 | 0.46 | 0.46 | 92 | 1014.5 |
| 20260510120005 | 10 | 33 | 4.8 | 9.7 | 0.23 | 0.46 | 0.46 | 92 | 1014.5 |
| 20260510115006 | 10 | 19 | 3.2 | 8.0 | 0.28 | 0.46 | 0.46 | 92 | 1014.7 |
| 20260510114005 | 10 | 18 | 3.2 | 8.0 | 0.30 | 0.43 | 0.43 | 91 | 1015.0 |
| 20260510113005 | 10 | 19 | 1.6 | 4.8 | 0.25 | 0.41 | 0.41 | 91 | 1015.3 |
| 20260510110005 | 10 | 25 | 1.6 | 4.8 | 0.15 | 0.23 | 0.23 | 89 | 1015.4 |
| 20260510105004 | 10 | 0 | 1.6 | 8.0 | 0.10 | 0.18 | 0.18 | 89 | 1015.6 |
| 20260510104004 | 10 | 171 | 0.0 | 4.8 | 0.08 | 0.15 | 0.15 | 89 | 1015.7 |
| 20260510103004 | 10 | 19 | 1.6 | 4.8 | 0.10 | 0.15 | 0.15 | 87 | 1015.7 |
| 20260510102004 | 10 | 46 | 1.6 | 4.8 | 0.10 | 0.13 | 0.13 | 87 | 1015.6 |
| 20260510101004 | 11 | 5 | 1.6 | 4.8 | 0.10 | 0.10 | 0.10 | 86 | 1015.5 |
| 20260510100005 | 11 | 60 | 3.2 | 12.9 | 0.08 | 0.08 | 0.08 | 86 | 1015.5 |
| 20260510095006 | 11 | 59 | 0.0 | 9.7 | 0.08 | 0.08 | 0.08 | 86 | 1015.5 |
| 20260510094004 | 11 | 9 | 1.6 | 4.8 | 0.05 | 0.05 | 0.05 | 85 | 1015.5 |
| 20260510093005 | 11 | 29 | 1.6 | 4.8 | 0.05 | 0.05 | 0.05 | 85 | 1015.5 |
| 20260510091004 | 11 | 357 | 3.2 | 9.7 | 0.00 | 0.00 | 0.00 | 81 | 1015.5 |
| 20260510090006 | 11 | 63 | 1.6 | 4.8 | 0.00 | 0.00 | 0.00 | 78 | 1015.5 |
| 20260510085004 | 11 | 33 | 3.2 | 12.9 | 0.00 | 0.00 | 0.00 | 76 | 1015.5 |
| 20260510084004 | 11 | 25 | 3.2 | 12.9 | 0.00 | 0.00 | 0.00 | 76 | 1015.4 |
| 20260510083004 | 11 | 37 | 3.2 | 8.0 | 0.00 | 0.00 | 0.00 | 76 | 1015.4 |
| 20260510082005 | 11 | 37 | 1.6 | 9.7 | 0.00 | 0.00 | 0.00 | 76 | 1015.4 |
| 20260510081005 | 11 | 29 | 3.2 | 9.7 | 0.00 | 0.00 | 0.00 | 75 | 1015.3 |
| 20260510075004 | 11 | 25 | 3.2 | 8.0 | 0.00 | 0.00 | 0.00 | 76 | 1015.4 |
| 20260510074005 | 11 | 32 | 3.2 | 12.9 | 0.00 | 0.00 | 0.00 | 76 | 1015.4 |
| 20260510073004 | 11 | 28 | 3.2 | 14.5 | 0.00 | 0.00 | 0.00 | 76 | 1015.3 |
| 20260510072004 | 11 | 36 | 3.2 | 14.5 | 0.00 | 0.00 | 0.00 | 77 | 1015.4 |
| 20260510070004 | 11 | 36 | 4.8 | 12.9 | 0.00 | 0.00 | 0.00 | 77 | 1015.3 |
| 20260510065007 | 11 | 26 | 3.2 | 12.9 | 0.00 | 0.00 | 0.00 | 78 | 1015.3 |
| 20260510064004 | 11 | 36 | 3.2 | 11.3 | 0.00 | 0.00 | 0.00 | 79 | 1015.3 |
| 20260510063004 | 11 | 350 | 3.2 | 11.3 | 0.00 | 0.00 | 0.00 | 79 | 1015.3 |
| 20260510062004 | 11 | 33 | 3.2 | 8.0 | 0.00 | 0.00 | 0.00 | 78 | 1015.2 |
| 20260510061004 | 10 | 30 | 3.2 | 11.3 | 0.00 | 0.00 | 0.00 | 78 | 1015.2 |
| 20260510060005 | 10 | 5 | 1.6 | 8.0 | 0.00 | 0.00 | 0.00 | 79 | 1015.3 |
| 20260510055004 | 10 | 35 | 3.2 | 8.0 | 0.00 | 0.00 | 0.00 | 79 | 1015.3 |
| 20260510054004 | 10 | 61 | 1.6 | 9.7 | 0.00 | 0.00 | 0.00 | 80 | 1015.3 |
| 20260510053007 | 10 | 44 | 3.2 | 8.0 | 0.00 | 0.00 | 0.00 | 80 | 1015.3 |
| 20260510052004 | 10 | 49 | 3.2 | 8.0 | 0.00 | 0.00 | 0.00 | 80 | 1015.3 |
| 20260510051006 | 10 | 26 | 3.2 | 8.0 | 0.00 | 0.00 | 0.00 | 80 | 1015.3 |
| 20260510050004 | 10 | 20 | 1.6 | 8.0 | 0.00 | 0.00 | 0.00 | 80 | 1015.3 |
| 20260510045004 | 10 | 49 | 1.6 | 8.0 | 0.00 | 0.00 | 0.00 | 79 | 1015.3 |
| 20260510044005 | 10 | 56 | 1.6 | 4.8 | 0.00 | 0.00 | 0.00 | 77 | 1015.2 |
| 20260510043004 | 11 | 25 | 3.2 | 8.0 | 0.00 | 0.00 | 0.00 | 76 | 1015.3 |
| 20260510042004 | 11 | 25 | 4.8 | 9.7 | 0.00 | 0.00 | 0.00 | 75 | 1015.2 |
| 20260510041006 | 11 | 28 | 3.2 | 8.0 | 0.00 | 0.00 | 0.00 | 74 | 1015.4 |
| 20260510034006 | 11 | 32 | 1.6 | 8.0 | 0.00 | 0.00 | 0.00 | 72 | 1015.5 |
| 20260510033006 | 11 | 33 | 3.2 | 16.1 | 0.00 | 0.00 | 0.00 | 72 | 1015.6 |
| 20260510032006 | 11 | 19 | 1.6 | 4.8 | 0.00 | 0.00 | 0.00 | 72 | 1015.6 |
| 20260510030007 | 11 | 37 | 1.6 | 8.0 | 0.00 | 0.00 | 0.00 | 72 | 1015.7 |
| 20260510023006 | 12 | 28 | 1.6 | 8.0 | 0.00 | 0.00 | 0.00 | 68 | 1015.6 |
| 20260510021006 | 12 | 29 | 3.2 | 12.9 | 0.00 | 0.00 | 0.00 | 67 | 1015.6 |
| 20260510020006 | 12 | 95 | 1.6 | 4.8 | 0.00 | 0.00 | 0.00 | 66 | 1015.6 |
| 20260510015006 | 12 | 26 | 1.6 | 4.8 | 0.00 | 0.00 | 0.00 | 65 | 1015.6 |
| 20260510014005 | 12 | 53 | 3.2 | 4.8 | 0.00 | 0.00 | 0.00 | 65 | 1015.7 |
| 20260510013006 | 12 | 54 | 1.6 | 4.8 | 0.00 | 0.00 | 0.00 | 64 | 1015.7 |
| 20260510012006 | 12 | 10 | 1.6 | 12.9 | 0.00 | 0.00 | 0.00 | 62 | 1015.8 |
| 20260510005007 | 12 | 29 | 0.0 | 4.8 | 0.00 | 0.00 | 0.00 | 60 | 1015.8 |
| 20260510004006 | 13 | 78 | 1.6 | 4.8 | 0.00 | 0.00 | 0.00 | 60 | 1015.9 |
| 20260510003006 | 13 | 50 | 1.6 | 9.7 | 0.00 | 0.00 | 0.00 | 59 | 1016.0 |
| 20260510001006 | 13 | 159 | 0.0 | 4.8 | 0.00 | 0.00 | 0.00 | 58 | 1015.9 |
| 20260510000006 | 13 | 125 | 1.6 | 4.8 | 0.00 | 0.00 | 0.00 | 59 | 1015.9 |
| 20260509235006 | 13 | 55 | 1.6 | 11.3 | 0.00 | 0.00 | 0.00 | 59 | 1016.0 |
| 20260509234006 | 13 | 154 | 1.6 | 4.8 | 0.00 | 0.00 | 0.00 | 58 | 1015.8 |
| 20260509233005 | 13 | 149 | 1.6 | 12.9 | 0.00 | 0.00 | 0.00 | 58 | 1015.8 |
| 20260509232006 | 13 | 130 | 1.6 | 12.9 | 0.00 | 0.00 | 0.00 | 58 | 1015.9 |
| 20260509231006 | 13 | 149 | 1.6 | 8.0 | 0.00 | 0.00 | 0.00 | 57 | 1016.0 |
| 20260509230005 | 13 | 179 | 1.6 | 4.8 | 0.00 | 0.00 | 0.00 | 55 | 1016.0 |
| 20260509225005 | 13 | 127 | 1.6 | 14.5 | 0.00 | 0.00 | 0.00 | 57 | 1015.9 |
| 20260509224007 | 13 | 135 | 3.2 | 11.3 | 0.00 | 0.00 | 0.00 | 59 | 1015.9 |
| 20260509223005 | 13 | 146 | 1.6 | 4.8 | 0.00 | 0.00 | 0.00 | 60 | 1015.9 |
| 20260509221005 | 13 | 170 | 1.6 | 8.0 | 0.00 | 0.00 | 0.00 | 60 | 1015.9 |
| 20260509220005 | 14 | 146 | 1.6 | 4.8 | 0.00 | 0.00 | 0.00 | 58 | 1015.9 |
| 20260509215005 | 14 | 183 | 1.6 | 9.7 | 0.00 | 0.00 | 0.00 | 56 | 1015.8 |
| 20260509214005 | 14 | 128 | 0.0 | 9.7 | 0.00 | 0.00 | 0.00 | 56 | 1015.7 |
| 20260509213006 | 14 | 33 | 1.6 | 11.3 | 0.00 | 0.00 | 0.00 | 58 | 1015.7 |
| 20260509212005 | 15 | 29 | 0.0 | 4.8 | 0.00 | 0.00 | 0.00 | 58 | 1015.6 |
| 20260509211005 | 15 | 43 | 0.0 | 12.9 | 0.00 | 0.00 | 0.00 | 60 | 1015.7 |
| 20260509210005 | 15 | 19 | 0.0 | 3.2 | 0.00 | 0.00 | 0.00 | 61 | 1015.7 |
| 20260509205005 | 15 | 84 | 1.6 | 4.8 | 0.00 | 0.00 | 0.00 | 61 | 1015.5 |
| 20260509204005 | 15 | 120 | 1.6 | 8.0 | 0.00 | 0.00 | 0.00 | 59 | 1015.5 |
| 20260509203005 | 15 | 66 | 1.6 | 8.0 | 0.00 | 0.00 | 0.00 | 58 | 1015.3 |
| 20260509201005 | 15 | 109 | 1.6 | 4.8 | 0.00 | 0.00 | 0.00 | 62 | 1015.0 |
| 20260509200005 | 15 | 46 | 1.6 | 4.8 | 0.00 | 0.00 | 0.00 | 63 | 1014.8 |
| 20260509195005 | 15 | 148 | 1.6 | 4.8 | 0.00 | 0.00 | 0.00 | 65 | 1014.7 |
| 20260509194007 | 15 | 145 | 1.6 | 3.2 | 0.00 | 0.00 | 0.00 | 69 | 1014.6 |
| 20260509192005 | 15 | 140 | 0.0 | 1.6 | 0.00 | 0.00 | 0.00 | 72 | 1014.6 |
| 20260509191005 | 16 | 140 | 0.0 | 4.8 | 0.00 | 0.00 | 0.00 | 71 | 1014.7 |
| 20260509190006 | 16 | 140 | 1.6 | 11.3 | 0.00 | 0.00 | 0.00 | 70 | 1014.7 |
| 20260509185005 | 16 | 139 | 4.8 | 12.9 | 0.00 | 0.00 | 0.00 | 66 | 1014.8 |
| 20260509184005 | 17 | 136 | 3.2 | 11.3 | 0.00 | 0.00 | 0.00 | 64 | 1014.7 |
| 20260509183005 | 17 | 148 | 3.2 | 8.0 | 0.00 | 0.00 | 0.00 | 63 | 1014.5 |
| 20260509182005 | 17 | 144 | 1.6 | 4.8 | 0.00 | 0.00 | 0.00 | 61 | 1014.5 |
| 20260509181005 | 18 | 148 | 1.6 | 19.3 | 0.00 | 0.00 | 0.00 | 59 | 1014.5 |
| 20260509180005 | 18 | 129 | 11.3 | 19.3 | 0.00 | 0.00 | 0.00 | 57 | 1014.6 |
| 20260509174005 | 18 | 149 | 0.0 | 4.8 | 0.00 | 0.00 | 0.00 | 56 | 1014.4 |
| 20260509173006 | 18 | 147 | 0.0 | 4.8 | 0.00 | 0.00 | 0.00 | 56 | 1014.4 |
| 20260509172005 | 19 | 151 | 0.0 | 8.0 | 0.00 | 0.00 | 0.00 | 56 | 1014.5 |
| 20260509171005 | 19 | 153 | 1.6 | 9.7 | 0.00 | 0.00 | 0.00 | 54 | 1014.5 |
| 20260509165005 | 20 | 146 | 4.8 | 12.9 | 0.00 | 0.00 | 0.00 | 51 | 1014.5 |
| 20260509164006 | 20 | 144 | 3.2 | 14.5 | 0.00 | 0.00 | 0.00 | 52 | 1014.6 |
| 20260509163005 | 20 | 138 | 8.0 | 19.3 | 0.00 | 0.00 | 0.00 | 51 | 1014.6 |
| 20260509162005 | 20 | 135 | 14.5 | 22.5 | 0.00 | 0.00 | 0.00 | 51 | 1014.6 |
| 20260509161007 | 20 | 135 | 9.7 | 19.3 | 0.00 | 0.00 | 0.00 | 51 | 1014.6 |
| 20260509160005 | 20 | 143 | 8.0 | 22.5 | 0.00 | 0.00 | 0.00 | 51 | 1014.6 |
| 20260509155005 | 21 | 138 | 4.8 | 22.5 | 0.00 | 0.00 | 0.00 | 52 | 1014.6 |